sat.trackr.live / text

‹ back to catalog

STARLINK-35076

NORAD 65457 · 2025-194Z

PAYLOAD ACTIVE UNKNOWN

§ Identity

Operator
Country
US
Launch date
2025-09-03
Launch site
AFWTR
Launch vehicle
Mass (kg)
RCS (m²)

Purposes: comms

External: N2YO · Heavens-Above · Gunter

§ Orbital elements

Epoch: 2026-05-25T02:34:27.791040Z

Period
95.64 min
Inclination
97.4523°
Eccentricity
0.0002223
Mean motion
15.05655281 rev/d
Perigee alt
548.0 km
Apogee alt
551.0 km
Semi-major
6,927.6 km
B*
1.4932e-4
RAAN
359.2938°
Arg perigee
77.3735°
Mean anomaly
282.7741°
Rev number
4,114

§ Raw data

STARLINK-350761 65457U 25194Z   26145.10726610  .00002097  00000+0  14932-3 0  99982 65457  97.4523 359.2938 0002223  77.3735 282.7741 15.05655281 41148

JSON: /api/v1/satellites/65457 · /tle

For live sub-satellite position, see the globe view (requires WebGL).

§ Visibility from observer

Set your observer location to see the next 7 days of passes ≥ 10°. The values pass through the URL so the page stays shareable.

No JS? Fill the form by hand. The geolocation button needs JavaScript.